Location: Budapest
(47.4979°N, 19.0402°E)
Time: 22:33:52
(UTC+01:00)

ISS - Pass Details

Date: 03 October 2020
Orbit: 417 x 420 km, 51.6° (Epoch: 26 October)

Event Time Altitude Azimuth Distance (km) Brightness Sun altitude
Rises 21:09:11 0° 284° (WNW) 2,369 1.2 -28.8°
Reaches altitude 10° 21:12:04 10° 257° (WSW) 1,500 -0.4 -29.2°
Enters shadow 21:12:12 10° 255° (WSW) 1,473 -0.5 -29.2°
